owner,sensor,date,latitude,longitude,air_pressure(mBar),qcFlag 
COMPS,ioos:station:USF.COMPS:C13:1,2014-04-01T00:05:00Z,26.0630,-83.0730,1017.5,1111122 
COMPS,ioos:station:USF.COMPS:C13:1,2014-04-01T00:35:00Z,26.0630,-83.0730,1017.46,1111122 
COMPS,ioos:station:USF.COMPS:C13:1,2014-04-01T01:05:00Z,26.0630,-83.0730,1017.73,1111122 
COMPS,ioos:station:USF.COMPS:C13:1,2014-04-01T01:35:00Z,26.0630,-83.0730,1018.03,1111122 
COMPS,ioos:station:USF.COMPS:C13:1,2014-04-01T02:05:00Z,26.0630,-83.0730,1018.16,1111122 
COMPS,ioos:station:USF.COMPS:C13:1,2014-04-01T02:35:00Z,26.0630,-83.0730,1018.25,1111122 
COMPS,ioos:station:USF.COMPS:C13:1,2014-04-01T03:05:00Z,26.0630,-83.0730,1018.37,1111122 
COMPS,ioos:station:USF.COMPS:C13:1,2014-04-01T03:35:00Z,26.0630,-83.0730,1018.63,1111122 
COMPS,ioos:station:USF.COMPS:C13:1,2014-04-01T04:05:00Z,26.0630,-83.0730,1018.62,1111122 
COMPS,ioos:station:USF.COMPS:C13:1,2014-04-01T04:35:00Z,26.0630,-83.0730,1018.63,1111122 
COMPS,ioos:station:USF.COMPS:C13:1,2014-04-01T05:05:00Z,26.0630,-83.0730,1018.34,1111122 
COMPS,ioos:station:USF.COMPS:C13:1,2014-04-01T05:35:00Z,26.0630,-83.0730,1018.16,1111122 
COMPS,ioos:station:USF.COMPS:C13:1,2014-04-01T06:05:00Z,26.0630,-83.0730,1018.18,1111122 
COMPS,ioos:station:USF.COMPS:C13:1,2014-04-01T06:35:00Z,26.0630,-83.0730,1017.94,1111122 
COMPS,ioos:station:USF.COMPS:C13:1,2014-04-01T07:05:00Z,26.0630,-83.0730,1017.76,1111122 
COMPS,ioos:station:USF.COMPS:C13:1,2014-04-01T07:35:00Z,26.0630,-83.0730,1017.73,1111122 
COMPS,ioos:station:USF.COMPS:C13:1,2014-04-01T08:05:00Z,26.0630,-83.0730,1017.6,1111122 
COMPS,ioos:station:USF.COMPS:C13:1,2014-04-01T08:35:00Z,26.0630,-83.0730,1017.35,1111122 
COMPS,ioos:station:USF.COMPS:C13:1,2014-04-01T09:05:00Z,26.0630,-83.0730,1017.14,1111122 
COMPS,ioos:station:USF.COMPS:C13:1,2014-04-01T09:35:00Z,26.0630,-83.0730,1017.33,1111122 
COMPS,ioos:station:USF.COMPS:C13:1,2014-04-01T10:05:00Z,26.0630,-83.0730,1017.38,1111122 
COMPS,ioos:station:USF.COMPS:C13:1,2014-04-01T10:35:00Z,26.0630,-83.0730,1017.55,1111122 
COMPS,ioos:station:USF.COMPS:C13:1,2014-04-01T11:05:00Z,26.0630,-83.0730,1017.55,1111122 
COMPS,ioos:station:USF.COMPS:C13:1,2014-04-01T11:35:00Z,26.0630,-83.0730,1017.75,1111122 
COMPS,ioos:station:USF.COMPS:C13:1,2014-04-01T12:05:00Z,26.0630,-83.0730,1018.16,1111122 
COMPS,ioos:station:USF.COMPS:C13:1,2014-04-01T12:35:00Z,26.0630,-83.0730,1018.62,1111122 
COMPS,ioos:station:USF.COMPS:C13:1,2014-04-01T13:05:00Z,26.0630,-83.0730,1018.81,1111122 
COMPS,ioos:station:USF.COMPS:C13:1,2014-04-01T13:35:00Z,26.0630,-83.0730,1019.02,1111122 
COMPS,ioos:station:USF.COMPS:C13:1,2014-04-01T14:05:00Z,26.0630,-83.0730,1019.28,1111122 
COMPS,ioos:station:USF.COMPS:C13:1,2014-04-01T14:35:00Z,26.0630,-83.0730,1019.62,1111122 
COMPS,ioos:station:USF.COMPS:C13:1,2014-04-01T15:05:00Z,26.0630,-83.0730,1019.78,1111122 
COMPS,ioos:station:USF.COMPS:C13:1,2014-04-01T15:35:00Z,26.0630,-83.0730,1020.01,1111122 
COMPS,ioos:station:USF.COMPS:C13:1,2014-04-01T16:05:00Z,26.0630,-83.0730,1019.71,1111122 
COMPS,ioos:station:USF.COMPS:C13:1,2014-04-01T16:35:00Z,26.0630,-83.0730,1019.6,1111122 
COMPS,ioos:station:USF.COMPS:C13:1,2014-04-01T17:05:00Z,26.0630,-83.0730,1019.3,1111122 
COMPS,ioos:station:USF.COMPS:C13:1,2014-04-01T17:35:00Z,26.0630,-83.0730,1019.33,1111122 
COMPS,ioos:station:USF.COMPS:C13:1,2014-04-01T18:05:00Z,26.0630,-83.0730,1019.09,1111122 
COMPS,ioos:station:USF.COMPS:C13:1,2014-04-01T18:35:00Z,26.0630,-83.0730,1018.88,1111122 
COMPS,ioos:station:USF.COMPS:C13:1,2014-04-01T19:05:00Z,26.0630,-83.0730,1018.76,1111122 
COMPS,ioos:station:USF.COMPS:C13:1,2014-04-01T19:35:00Z,26.0630,-83.0730,1018.56,1111122 
COMPS,ioos:station:USF.COMPS:C13:1,2014-04-01T20:05:00Z,26.0630,-83.0730,1018.4,1111122 
COMPS,ioos:station:USF.COMPS:C13:1,2014-04-01T20:35:00Z,26.0630,-83.0730,1018.27,1111122 
COMPS,ioos:station:USF.COMPS:C13:1,2014-04-01T21:05:00Z,26.0630,-83.0730,1018.17,1111122 
COMPS,ioos:station:USF.COMPS:C13:1,2014-04-01T21:35:00Z,26.0630,-83.0730,1018.27,1111122 
COMPS,ioos:station:USF.COMPS:C13:1,2014-04-01T22:05:00Z,26.0630,-83.0730,1018.22,1111122 
COMPS,ioos:station:USF.COMPS:C13:1,2014-04-01T22:35:00Z,26.0630,-83.0730,1018.13,1111122 
COMPS,ioos:station:USF.COMPS:C13:1,2014-04-01T23:05:00Z,26.0630,-83.0730,1018.23,1111122 
COMPS,ioos:station:USF.COMPS:C13:1,2014-04-01T23:35:00Z,26.0630,-83.0730,1018.24,1111122 
COMPS,ioos:station:USF.COMPS:C13:1,2014-04-02T00:05:00Z,26.0630,-83.0730,1018.18,1111122 
COMPS,ioos:station:USF.COMPS:C13:1,2014-04-02T00:35:00Z,26.0630,-83.0730,1018.27,1111122 
COMPS,ioos:station:USF.COMPS:C13:1,2014-04-02T01:05:00Z,26.0630,-83.0730,1018.64,1111122 
COMPS,ioos:station:USF.COMPS:C13:1,2014-04-02T01:35:00Z,26.0630,-83.0730,1018.67,1111122 
COMPS,ioos:station:USF.COMPS:C13:1,2014-04-02T02:05:00Z,26.0630,-83.0730,1019.06,1111122 
COMPS,ioos:station:USF.COMPS:C13:1,2014-04-02T02:35:00Z,26.0630,-83.0730,1019.17,1111122 
COMPS,ioos:station:USF.COMPS:C13:1,2014-04-02T03:05:00Z,26.0630,-83.0730,1019.28,1111122 
COMPS,ioos:station:USF.COMPS:C13:1,2014-04-02T03:35:00Z,26.0630,-83.0730,1019.23,1111122 
COMPS,ioos:station:USF.COMPS:C13:1,2014-04-02T04:05:00Z,26.0630,-83.0730,1019.09,1111122 
COMPS,ioos:station:USF.COMPS:C13:1,2014-04-02T04:35:00Z,26.0630,-83.0730,1019.07,1111122 
COMPS,ioos:station:USF.COMPS:C13:1,2014-04-02T05:05:00Z,26.0630,-83.0730,1019.07,1111122 
COMPS,ioos:station:USF.COMPS:C13:1,2014-04-02T05:35:00Z,26.0630,-83.0730,1018.79,1111122 
COMPS,ioos:station:USF.COMPS:C13:1,2014-04-02T06:05:00Z,26.0630,-83.0730,1018.54,1111122 
COMPS,ioos:station:USF.COMPS:C13:1,2014-04-02T06:35:00Z,26.0630,-83.0730,1018.25,1111122 
COMPS,ioos:station:USF.COMPS:C13:1,2014-04-02T07:05:00Z,26.0630,-83.0730,1018.02,1111122 
COMPS,ioos:station:USF.COMPS:C13:1,2014-04-02T07:35:00Z,26.0630,-83.0730,1017.8,1111122 
COMPS,ioos:station:USF.COMPS:C13:1,2014-04-02T08:05:00Z,26.0630,-83.0730,1017.72,1111122 
COMPS,ioos:station:USF.COMPS:C13:1,2014-04-02T08:35:00Z,26.0630,-83.0730,1017.65,1111122 
COMPS,ioos:station:USF.COMPS:C13:1,2014-04-02T09:05:00Z,26.0630,-83.0730,1017.73,1111122 
COMPS,ioos:station:USF.COMPS:C13:1,2014-04-02T09:35:00Z,26.0630,-83.0730,1017.75,1111122 
COMPS,ioos:station:USF.COMPS:C13:1,2014-04-02T10:05:00Z,26.0630,-83.0730,1018.04,1111122 
COMPS,ioos:station:USF.COMPS:C13:1,2014-04-02T10:35:00Z,26.0630,-83.0730,1018.27,1111122 
COMPS,ioos:station:USF.COMPS:C13:1,2014-04-02T11:05:00Z,26.0630,-83.0730,1018.55,1111122 
COMPS,ioos:station:USF.COMPS:C13:1,2014-04-02T11:35:00Z,26.0630,-83.0730,1018.89,1111122 
COMPS,ioos:station:USF.COMPS:C13:1,2014-04-02T12:05:00Z,26.0630,-83.0730,1019.09,1111122 
COMPS,ioos:station:USF.COMPS:C13:1,2014-04-02T12:35:00Z,26.0630,-83.0730,1019.28,1111122 
COMPS,ioos:station:USF.COMPS:C13:1,2014-04-02T13:05:00Z,26.0630,-83.0730,1019.6,1111122 
COMPS,ioos:station:USF.COMPS:C13:1,2014-04-02T13:35:00Z,26.0630,-83.0730,1019.62,1111122 
COMPS,ioos:station:USF.COMPS:C13:1,2014-04-02T14:05:00Z,26.0630,-83.0730,1019.96,1111122 
COMPS,ioos:station:USF.COMPS:C13:1,2014-04-02T14:35:00Z,26.0630,-83.0730,1020.01,1111122 
COMPS,ioos:station:USF.COMPS:C13:1,2014-04-02T15:05:00Z,26.0630,-83.0730,1020.26,1111122 
COMPS,ioos:station:USF.COMPS:C13:1,2014-04-02T15:35:00Z,26.0630,-83.0730,1020.24,1111122 
COMPS,ioos:station:USF.COMPS:C13:1,2014-04-02T16:05:00Z,26.0630,-83.0730,1020.28,1111122 
COMPS,ioos:station:USF.COMPS:C13:1,2014-04-02T16:35:00Z,26.0630,-83.0730,1020.01,1111122 
COMPS,ioos:station:USF.COMPS:C13:1,2014-04-02T17:05:00Z,26.0630,-83.0730,1020.01,1111122 
COMPS,ioos:station:USF.COMPS:C13:1,2014-04-02T17:35:00Z,26.0630,-83.0730,1019.72,1111122 
COMPS,ioos:station:USF.COMPS:C13:1,2014-04-02T18:05:00Z,26.0630,-83.0730,1019.46,1111122 
COMPS,ioos:station:USF.COMPS:C13:1,2014-04-02T18:35:00Z,26.0630,-83.0730,1019.34,1111122 
COMPS,ioos:station:USF.COMPS:C13:1,2014-04-02T19:05:00Z,26.0630,-83.0730,1019.1,1111122 
COMPS,ioos:station:USF.COMPS:C13:1,2014-04-02T19:35:00Z,26.0630,-83.0730,1018.72,1111122 
COMPS,ioos:station:USF.COMPS:C13:1,2014-04-02T20:05:00Z,26.0630,-83.0730,1018.58,1111122 
COMPS,ioos:station:USF.COMPS:C13:1,2014-04-02T20:35:00Z,26.0630,-83.0730,1018.17,1111122 
COMPS,ioos:station:USF.COMPS:C13:1,2014-04-02T21:05:00Z,26.0630,-83.0730,1017.76,1111122 
COMPS,ioos:station:USF.COMPS:C13:1,2014-04-02T21:35:00Z,26.0630,-83.0730,1017.69,1111122 
COMPS,ioos:station:USF.COMPS:C13:1,2014-04-02T22:05:00Z,26.0630,-83.0730,1017.75,1111122 
COMPS,ioos:station:USF.COMPS:C13:1,2014-04-02T22:35:00Z,26.0630,-83.0730,1017.78,1111122 
COMPS,ioos:station:USF.COMPS:C13:1,2014-04-02T23:05:00Z,26.0630,-83.0730,1017.8,1111122 
COMPS,ioos:station:USF.COMPS:C13:1,2014-04-02T23:35:00Z,26.0630,-83.0730,1017.88,1111122 
COMPS,ioos:station:USF.COMPS:C13:1,2014-04-03T00:05:00Z,26.0630,-83.0730,1018.23,1111122 
COMPS,ioos:station:USF.COMPS:C13:1,2014-04-03T00:35:00Z,26.0630,-83.0730,1018.27,1111122 
COMPS,ioos:station:USF.COMPS:C13:1,2014-04-03T01:05:00Z,26.0630,-83.0730,1018.54,1111122 
COMPS,ioos:station:USF.COMPS:C13:1,2014-04-03T01:35:00Z,26.0630,-83.0730,1018.69,1111122 
COMPS,ioos:station:USF.COMPS:C13:1,2014-04-03T02:05:00Z,26.0630,-83.0730,1018.85,1111122 
COMPS,ioos:station:USF.COMPS:C13:1,2014-04-03T02:35:00Z,26.0630,-83.0730,1018.9,1111122 
COMPS,ioos:station:USF.COMPS:C13:1,2014-04-03T03:05:00Z,26.0630,-83.0730,1018.89,1111122 
COMPS,ioos:station:USF.COMPS:C13:1,2014-04-03T03:35:00Z,26.0630,-83.0730,1018.72,1111122 
COMPS,ioos:station:USF.COMPS:C13:1,2014-04-03T04:05:00Z,26.0630,-83.0730,1018.83,1111122 
COMPS,ioos:station:USF.COMPS:C13:1,2014-04-03T04:35:00Z,26.0630,-83.0730,1018.64,1111122 
COMPS,ioos:station:USF.COMPS:C13:1,2014-04-03T05:05:00Z,26.0630,-83.0730,1018.31,1111122 
COMPS,ioos:station:USF.COMPS:C13:1,2014-04-03T05:35:00Z,26.0630,-83.0730,1018.27,1111122 
COMPS,ioos:station:USF.COMPS:C13:1,2014-04-03T06:05:00Z,26.0630,-83.0730,1018.07,1111122 
COMPS,ioos:station:USF.COMPS:C13:1,2014-04-03T06:35:00Z,26.0630,-83.0730,1017.73,1111122 
COMPS,ioos:station:USF.COMPS:C13:1,2014-04-03T07:05:00Z,26.0630,-83.0730,1017.45,1111122 
COMPS,ioos:station:USF.COMPS:C13:1,2014-04-03T07:35:00Z,26.0630,-83.0730,1017.19,1111122 
COMPS,ioos:station:USF.COMPS:C13:1,2014-04-03T08:05:00Z,26.0630,-83.0730,1017.06,1111122 
COMPS,ioos:station:USF.COMPS:C13:1,2014-04-03T08:35:00Z,26.0630,-83.0730,1016.66,1111122 
COMPS,ioos:station:USF.COMPS:C13:1,2014-04-03T09:05:00Z,26.0630,-83.0730,1016.39,1111122 
COMPS,ioos:station:USF.COMPS:C13:1,2014-04-03T09:35:00Z,26.0630,-83.0730,1016.58,1111122 
COMPS,ioos:station:USF.COMPS:C13:1,2014-04-03T10:05:00Z,26.0630,-83.0730,1016.9,1111122 
COMPS,ioos:station:USF.COMPS:C13:1,2014-04-03T10:35:00Z,26.0630,-83.0730,1017.07,1111122 
COMPS,ioos:station:USF.COMPS:C13:1,2014-04-03T11:05:00Z,26.0630,-83.0730,1017.54,1111122 
COMPS,ioos:station:USF.COMPS:C13:1,2014-04-03T11:35:00Z,26.0630,-83.0730,1017.64,1111122 
COMPS,ioos:station:USF.COMPS:C13:1,2014-04-03T12:05:00Z,26.0630,-83.0730,1017.81,1111122 
COMPS,ioos:station:USF.COMPS:C13:1,2014-04-03T12:35:00Z,26.0630,-83.0730,1018.17,1111122 
COMPS,ioos:station:USF.COMPS:C13:1,2014-04-03T13:05:00Z,26.0630,-83.0730,1018.32,1111122 
COMPS,ioos:station:USF.COMPS:C13:1,2014-04-03T13:35:00Z,26.0630,-83.0730,1018.54,1111122 
COMPS,ioos:station:USF.COMPS:C13:1,2014-04-03T14:05:00Z,26.0630,-83.0730,1018.51,1111122 
COMPS,ioos:station:USF.COMPS:C13:1,2014-04-03T14:35:00Z,26.0630,-83.0730,1018.67,1111122 
COMPS,ioos:station:USF.COMPS:C13:1,2014-04-03T15:05:00Z,26.0630,-83.0730,1018.67,1111122 
COMPS,ioos:station:USF.COMPS:C13:1,2014-04-03T15:35:00Z,26.0630,-83.0730,1018.84,1111122 
COMPS,ioos:station:USF.COMPS:C13:1,2014-04-03T16:05:00Z,26.0630,-83.0730,1018.79,1111122 
COMPS,ioos:station:USF.COMPS:C13:1,2014-04-03T16:35:00Z,26.0630,-83.0730,1018.66,1111122 
COMPS,ioos:station:USF.COMPS:C13:1,2014-04-03T17:05:00Z,26.0630,-83.0730,1018.09,1111122 
COMPS,ioos:station:USF.COMPS:C13:1,2014-04-03T17:35:00Z,26.0630,-83.0730,1017.86,1111122 
COMPS,ioos:station:USF.COMPS:C13:1,2014-04-03T18:05:00Z,26.0630,-83.0730,1017.73,1111122 
COMPS,ioos:station:USF.COMPS:C13:1,2014-04-03T18:35:00Z,26.0630,-83.0730,1017.45,1111122 
COMPS,ioos:station:USF.COMPS:C13:1,2014-04-03T19:05:00Z,26.0630,-83.0730,1017.13,1111122 
COMPS,ioos:station:USF.COMPS:C13:1,2014-04-03T19:35:00Z,26.0630,-83.0730,1016.88,1111122 
COMPS,ioos:station:USF.COMPS:C13:1,2014-04-03T20:05:00Z,26.0630,-83.0730,1016.12,1111122 
COMPS,ioos:station:USF.COMPS:C13:1,2014-04-03T20:35:00Z,26.0630,-83.0730,1016.04,1111122 
COMPS,ioos:station:USF.COMPS:C13:1,2014-04-03T21:05:00Z,26.0630,-83.0730,1015.8,1111122 
COMPS,ioos:station:USF.COMPS:C13:1,2014-04-03T21:35:00Z,26.0630,-83.0730,1015.77,1111122 
COMPS,ioos:station:USF.COMPS:C13:1,2014-04-03T22:05:00Z,26.0630,-83.0730,1015.6,1111122 
COMPS,ioos:station:USF.COMPS:C13:1,2014-04-03T22:35:00Z,26.0630,-83.0730,1015.48,1111122 
COMPS,ioos:station:USF.COMPS:C13:1,2014-04-03T23:05:00Z,26.0630,-83.0730,1015.35,1111122 
COMPS,ioos:station:USF.COMPS:C13:1,2014-04-03T23:35:00Z,26.0630,-83.0730,1015.53,1111122 
COMPS,ioos:station:USF.COMPS:C13:1,2014-04-04T00:05:00Z,26.0630,-83.0730,1015.39,1111122 
COMPS,ioos:station:USF.COMPS:C13:1,2014-04-04T00:35:00Z,26.0630,-83.0730,1015.54,1111122 
COMPS,ioos:station:USF.COMPS:C13:1,2014-04-04T01:05:00Z,26.0630,-83.0730,1015.58,1111122 
COMPS,ioos:station:USF.COMPS:C13:1,2014-04-04T01:35:00Z,26.0630,-83.0730,1015.9,1111122 
COMPS,ioos:station:USF.COMPS:C13:1,2014-04-04T02:05:00Z,26.0630,-83.0730,1016.05,1111122 
COMPS,ioos:station:USF.COMPS:C13:1,2014-04-04T02:35:00Z,26.0630,-83.0730,1016.16,1111122 
COMPS,ioos:station:USF.COMPS:C13:1,2014-04-04T03:05:00Z,26.0630,-83.0730,1016.45,1111122 
COMPS,ioos:station:USF.COMPS:C13:1,2014-04-04T03:35:00Z,26.0630,-83.0730,1016.51,1111122 
COMPS,ioos:station:USF.COMPS:C13:1,2014-04-04T04:05:00Z,26.0630,-83.0730,1016.36,1111122 
COMPS,ioos:station:USF.COMPS:C13:1,2014-04-04T04:35:00Z,26.0630,-83.0730,1016.18,1111122 
COMPS,ioos:station:USF.COMPS:C13:1,2014-04-04T05:05:00Z,26.0630,-83.0730,1015.98,1111122 
COMPS,ioos:station:USF.COMPS:C13:1,2014-04-04T05:35:00Z,26.0630,-83.0730,1015.58,1111122 
COMPS,ioos:station:USF.COMPS:C13:1,2014-04-04T06:05:00Z,26.0630,-83.0730,1015.33,1111122 
COMPS,ioos:station:USF.COMPS:C13:1,2014-04-04T06:35:00Z,26.0630,-83.0730,1015.19,1111122 
COMPS,ioos:station:USF.COMPS:C13:1,2014-04-04T07:05:00Z,26.0630,-83.0730,1014.92,1111122 
COMPS,ioos:station:USF.COMPS:C13:1,2014-04-04T07:35:00Z,26.0630,-83.0730,1014.63,1111122 
COMPS,ioos:station:USF.COMPS:C13:1,2014-04-04T08:05:00Z,26.0630,-83.0730,1014.1,1111122 
COMPS,ioos:station:USF.COMPS:C13:1,2014-04-04T08:35:00Z,26.0630,-83.0730,1013.89,1111122 
COMPS,ioos:station:USF.COMPS:C13:1,2014-04-04T09:05:00Z,26.0630,-83.0730,1013.78,1111122 
COMPS,ioos:station:USF.COMPS:C13:1,2014-04-04T09:35:00Z,26.0630,-83.0730,1013.97,1111122 
COMPS,ioos:station:USF.COMPS:C13:1,2014-04-04T10:05:00Z,26.0630,-83.0730,1014.18,1111122 
COMPS,ioos:station:USF.COMPS:C13:1,2014-04-04T10:35:00Z,26.0630,-83.0730,1014.14,1111122 
COMPS,ioos:station:USF.COMPS:C13:1,2014-04-04T11:05:00Z,26.0630,-83.0730,1014.35,1111122 
COMPS,ioos:station:USF.COMPS:C13:1,2014-04-04T11:35:00Z,26.0630,-83.0730,1014.64,1111122 
COMPS,ioos:station:USF.COMPS:C13:1,2014-04-04T12:05:00Z,26.0630,-83.0730,1015.04,1111122 
COMPS,ioos:station:USF.COMPS:C13:1,2014-04-04T12:35:00Z,26.0630,-83.0730,1015.04,1111122 
COMPS,ioos:station:USF.COMPS:C13:1,2014-04-04T13:05:00Z,26.0630,-83.0730,1015.3,1111122 
COMPS,ioos:station:USF.COMPS:C13:1,2014-04-04T13:35:00Z,26.0630,-83.0730,1015.27,1111122 
COMPS,ioos:station:USF.COMPS:C13:1,2014-04-04T14:05:00Z,26.0630,-83.0730,1015.22,1111122 
COMPS,ioos:station:USF.COMPS:C13:1,2014-04-04T14:35:00Z,26.0630,-83.0730,1015.54,1111122 
COMPS,ioos:station:USF.COMPS:C13:1,2014-04-04T15:05:00Z,26.0630,-83.0730,1015.76,1111122 
COMPS,ioos:station:USF.COMPS:C13:1,2014-04-04T15:35:00Z,26.0630,-83.0730,1015.84,1111122 
COMPS,ioos:station:USF.COMPS:C13:1,2014-04-04T16:05:00Z,26.0630,-83.0730,1015.59,1111122 
COMPS,ioos:station:USF.COMPS:C13:1,2014-04-04T16:35:00Z,26.0630,-83.0730,1015.3,1111122 
COMPS,ioos:station:USF.COMPS:C13:1,2014-04-04T17:05:00Z,26.0630,-83.0730,1015.28,1111122 
COMPS,ioos:station:USF.COMPS:C13:1,2014-04-04T17:35:00Z,26.0630,-83.0730,1015.61,1111122 
COMPS,ioos:station:USF.COMPS:C13:1,2014-04-04T18:05:00Z,26.0630,-83.0730,1015.61,1111122 
COMPS,ioos:station:USF.COMPS:C13:1,2014-04-04T18:35:00Z,26.0630,-83.0730,1015.59,1111122 
COMPS,ioos:station:USF.COMPS:C13:1,2014-04-04T19:05:00Z,26.0630,-83.0730,1015.25,1111122 
COMPS,ioos:station:USF.COMPS:C13:1,2014-04-04T19:35:00Z,26.0630,-83.0730,1014.96,1111122 
COMPS,ioos:station:USF.COMPS:C13:1,2014-04-04T20:05:00Z,26.0630,-83.0730,1014.77,1111122 
COMPS,ioos:station:USF.COMPS:C13:1,2014-04-04T20:35:00Z,26.0630,-83.0730,1014.77,1111122 
COMPS,ioos:station:USF.COMPS:C13:1,2014-04-04T21:05:00Z,26.0630,-83.0730,1014.56,1111122 
COMPS,ioos:station:USF.COMPS:C13:1,2014-04-04T21:35:00Z,26.0630,-83.0730,1014.51,1111122 
COMPS,ioos:station:USF.COMPS:C13:1,2014-04-04T22:05:00Z,26.0630,-83.0730,1014.34,1111122 
COMPS,ioos:station:USF.COMPS:C13:1,2014-04-04T22:35:00Z,26.0630,-83.0730,1014.42,1111122 
COMPS,ioos:station:USF.COMPS:C13:1,2014-04-04T23:05:00Z,26.0630,-83.0730,1014.62,1111122 
COMPS,ioos:station:USF.COMPS:C13:1,2014-04-04T23:35:00Z,26.0630,-83.0730,1014.73,1111122 
COMPS,ioos:station:USF.COMPS:C13:1,2014-04-05T00:05:00Z,26.0630,-83.0730,1015.06,1111122 
COMPS,ioos:station:USF.COMPS:C13:1,2014-04-05T00:35:00Z,26.0630,-83.0730,1015.07,1111122 
COMPS,ioos:station:USF.COMPS:C13:1,2014-04-05T01:05:00Z,26.0630,-83.0730,1015.13,1111122 
COMPS,ioos:station:USF.COMPS:C13:1,2014-04-05T01:35:00Z,26.0630,-83.0730,1015.55,1111122 
COMPS,ioos:station:USF.COMPS:C13:1,2014-04-05T02:05:00Z,26.0630,-83.0730,1015.85,1111122 
COMPS,ioos:station:USF.COMPS:C13:1,2014-04-05T02:35:00Z,26.0630,-83.0730,1015.96,1111122 
COMPS,ioos:station:USF.COMPS:C13:1,2014-04-05T03:05:00Z,26.0630,-83.0730,1015.85,1111122 
COMPS,ioos:station:USF.COMPS:C13:1,2014-04-05T03:35:00Z,26.0630,-83.0730,1015.93,1111122 
COMPS,ioos:station:USF.COMPS:C13:1,2014-04-05T04:05:00Z,26.0630,-83.0730,1015.58,1111122 
COMPS,ioos:station:USF.COMPS:C13:1,2014-04-05T04:35:00Z,26.0630,-83.0730,1015.26,1111122 
COMPS,ioos:station:USF.COMPS:C13:1,2014-04-05T05:05:00Z,26.0630,-83.0730,1015.31,1111122 
COMPS,ioos:station:USF.COMPS:C13:1,2014-04-05T05:35:00Z,26.0630,-83.0730,1014.83,1111122 
COMPS,ioos:station:USF.COMPS:C13:1,2014-04-05T06:05:00Z,26.0630,-83.0730,1014.52,1111122 
COMPS,ioos:station:USF.COMPS:C13:1,2014-04-05T06:35:00Z,26.0630,-83.0730,1014.1,1111122 
COMPS,ioos:station:USF.COMPS:C13:1,2014-04-05T07:05:00Z,26.0630,-83.0730,1014.02,1111122 
COMPS,ioos:station:USF.COMPS:C13:1,2014-04-05T07:35:00Z,26.0630,-83.0730,1013.7,1111122 
COMPS,ioos:station:USF.COMPS:C13:1,2014-04-05T08:05:00Z,26.0630,-83.0730,1013.42,1111122 
COMPS,ioos:station:USF.COMPS:C13:1,2014-04-05T08:35:00Z,26.0630,-83.0730,1013.39,1111122 
COMPS,ioos:station:USF.COMPS:C13:1,2014-04-05T09:05:00Z,26.0630,-83.0730,1013.19,1111122 
COMPS,ioos:station:USF.COMPS:C13:1,2014-04-05T09:35:00Z,26.0630,-83.0730,1013.38,1111122 
COMPS,ioos:station:USF.COMPS:C13:1,2014-04-05T10:05:00Z,26.0630,-83.0730,1013.57,1111122 
COMPS,ioos:station:USF.COMPS:C13:1,2014-04-05T10:35:00Z,26.0630,-83.0730,1013.86,1111122 
COMPS,ioos:station:USF.COMPS:C13:1,2014-04-05T11:05:00Z,26.0630,-83.0730,1013.84,1111122 
COMPS,ioos:station:USF.COMPS:C13:1,2014-04-05T11:35:00Z,26.0630,-83.0730,1014.1,1111122 
COMPS,ioos:station:USF.COMPS:C13:1,2014-04-05T12:05:00Z,26.0630,-83.0730,1014.29,1111122 
COMPS,ioos:station:USF.COMPS:C13:1,2014-04-05T12:35:00Z,26.0630,-83.0730,1014.75,1111122 
COMPS,ioos:station:USF.COMPS:C13:1,2014-04-05T13:05:00Z,26.0630,-83.0730,1014.98,1111122 
COMPS,ioos:station:USF.COMPS:C13:1,2014-04-05T13:35:00Z,26.0630,-83.0730,1015.1,1111122 
COMPS,ioos:station:USF.COMPS:C13:1,2014-04-05T14:05:00Z,26.0630,-83.0730,1015.35,1111122 
COMPS,ioos:station:USF.COMPS:C13:1,2014-04-05T14:35:00Z,26.0630,-83.0730,1015.61,1111122 
COMPS,ioos:station:USF.COMPS:C13:1,2014-04-05T15:05:00Z,26.0630,-83.0730,1015.89,1111122 
COMPS,ioos:station:USF.COMPS:C13:1,2014-04-05T15:35:00Z,26.0630,-83.0730,1015.98,1111122 
COMPS,ioos:station:USF.COMPS:C13:1,2014-04-05T16:05:00Z,26.0630,-83.0730,1015.99,1111122 
COMPS,ioos:station:USF.COMPS:C13:1,2014-04-05T16:35:00Z,26.0630,-83.0730,1016.01,1111122 
COMPS,ioos:station:USF.COMPS:C13:1,2014-04-05T17:05:00Z,26.0630,-83.0730,1015.81,1111122 
COMPS,ioos:station:USF.COMPS:C13:1,2014-04-05T17:35:00Z,26.0630,-83.0730,1015.76,1111122 
COMPS,ioos:station:USF.COMPS:C13:1,2014-04-05T18:05:00Z,26.0630,-83.0730,1015.67,1111122 
COMPS,ioos:station:USF.COMPS:C13:1,2014-04-05T18:35:00Z,26.0630,-83.0730,1015.57,1111122 
COMPS,ioos:station:USF.COMPS:C13:1,2014-04-05T19:05:00Z,26.0630,-83.0730,1015.1,1111122 
COMPS,ioos:station:USF.COMPS:C13:1,2014-04-05T19:35:00Z,26.0630,-83.0730,1014.8,1111122 
COMPS,ioos:station:USF.COMPS:C13:1,2014-04-05T20:05:00Z,26.0630,-83.0730,1014.65,1111122 
COMPS,ioos:station:USF.COMPS:C13:1,2014-04-05T20:35:00Z,26.0630,-83.0730,1014.33,1111122 
COMPS,ioos:station:USF.COMPS:C13:1,2014-04-05T21:05:00Z,26.0630,-83.0730,1014.16,1111122 
COMPS,ioos:station:USF.COMPS:C13:1,2014-04-05T21:35:00Z,26.0630,-83.0730,1013.97,1111122 
COMPS,ioos:station:USF.COMPS:C13:1,2014-04-05T22:05:00Z,26.0630,-83.0730,1014.1,1111122 
COMPS,ioos:station:USF.COMPS:C13:1,2014-04-05T22:35:00Z,26.0630,-83.0730,1014.1,1111122 
COMPS,ioos:station:USF.COMPS:C13:1,2014-04-05T23:05:00Z,26.0630,-83.0730,1013.92,1111122 
COMPS,ioos:station:USF.COMPS:C13:1,2014-04-05T23:35:00Z,26.0630,-83.0730,1013.99,1111122 
COMPS,ioos:station:USF.COMPS:C13:1,2014-04-06T00:05:00Z,26.0630,-83.0730,1014.2,1111122 
COMPS,ioos:station:USF.COMPS:C13:1,2014-04-06T00:35:00Z,26.0630,-83.0730,1014.42,1111122 
COMPS,ioos:station:USF.COMPS:C13:1,2014-04-06T01:05:00Z,26.0630,-83.0730,1014.55,1111122 
COMPS,ioos:station:USF.COMPS:C13:1,2014-04-06T01:35:00Z,26.0630,-83.0730,1014.7,1111122 
COMPS,ioos:station:USF.COMPS:C13:1,2014-04-06T02:05:00Z,26.0630,-83.0730,1014.95,1111122 
COMPS,ioos:station:USF.COMPS:C13:1,2014-04-06T02:35:00Z,26.0630,-83.0730,1015.25,1111122 
COMPS,ioos:station:USF.COMPS:C13:1,2014-04-06T03:05:00Z,26.0630,-83.0730,1015.34,1111122 
COMPS,ioos:station:USF.COMPS:C13:1,2014-04-06T03:35:00Z,26.0630,-83.0730,1015.31,1111122 
COMPS,ioos:station:USF.COMPS:C13:1,2014-04-06T04:05:00Z,26.0630,-83.0730,1015.45,1111122 
COMPS,ioos:station:USF.COMPS:C13:1,2014-04-06T04:35:00Z,26.0630,-83.0730,1015.45,1111122 
COMPS,ioos:station:USF.COMPS:C13:1,2014-04-06T05:05:00Z,26.0630,-83.0730,1015.21,1111122 
COMPS,ioos:station:USF.COMPS:C13:1,2014-04-06T05:35:00Z,26.0630,-83.0730,1015.04,1111122 
COMPS,ioos:station:USF.COMPS:C13:1,2014-04-06T06:05:00Z,26.0630,-83.0730,1014.75,1111122 
COMPS,ioos:station:USF.COMPS:C13:1,2014-04-06T06:35:00Z,26.0630,-83.0730,1014.64,1111122 
COMPS,ioos:station:USF.COMPS:C13:1,2014-04-06T07:05:00Z,26.0630,-83.0730,1014.57,1111122 
COMPS,ioos:station:USF.COMPS:C13:1,2014-04-06T07:35:00Z,26.0630,-83.0730,1014.17,1111122 
COMPS,ioos:station:USF.COMPS:C13:1,2014-04-06T08:05:00Z,26.0630,-83.0730,1013.96,1111122 
COMPS,ioos:station:USF.COMPS:C13:1,2014-04-06T08:35:00Z,26.0630,-83.0730,1013.84,1111122 
COMPS,ioos:station:USF.COMPS:C13:1,2014-04-06T09:05:00Z,26.0630,-83.0730,1013.47,1111122 
COMPS,ioos:station:USF.COMPS:C13:1,2014-04-06T09:35:00Z,26.0630,-83.0730,1013.42,1111122 
COMPS,ioos:station:USF.COMPS:C13:1,2014-04-06T10:05:00Z,26.0630,-83.0730,1013.33,1111122 
COMPS,ioos:station:USF.COMPS:C13:1,2014-04-06T10:35:00Z,26.0630,-83.0730,1013.34,1111122 
COMPS,ioos:station:USF.COMPS:C13:1,2014-04-06T11:05:00Z,26.0630,-83.0730,1013.51,1111122 
COMPS,ioos:station:USF.COMPS:C13:1,2014-04-06T11:35:00Z,26.0630,-83.0730,1013.58,1111122 
COMPS,ioos:station:USF.COMPS:C13:1,2014-04-06T12:05:00Z,26.0630,-83.0730,1014.1,1111122 
COMPS,ioos:station:USF.COMPS:C13:1,2014-04-06T12:35:00Z,26.0630,-83.0730,1014.1,1111122 